Regional Weather Roundup
Issued by NWS

Home | Current Version | Previous Version | Text Only | Print | Product List | Glossary On
Versions: 1 2 3 4 5 6 7 8 9 10 11 12 13 14 15 16 17 18 19 20 21 22 23 24 25 26 27 28 29 30 31 32 33 34 35 36 37 38 39 40 41 42 43 44 45 46 47 48 49 50
000
ASUS43 KLSX 020507
RWRMO

WEATHER SUMMARY FOR MISSOURI
NATIONAL WEATHER SERVICE SPRINGFIELD MO
1200 AM CDT THU JUL 02 2015

NOTE: "FAIR" INDICATES FEW OR NO CLOUDS BELOW 12,000 FEET WITH NO
       SIGNIFICANT WEATHER AND/OR OBSTRUCTIONS TO VISIBILITY.
       CURRENT SKY AND/OR WEATHER CONDITIONS ARE NOT AVAILABLE FOR
       CHILLICOTHE AND FARMINGTON.

MOZ001>031-035>038-043-044-053-054-020600-
...NORTHERN AND WESTERN MISSOURI...

CITY           SKY/WX    TMP DP  RH WIND       PRES   REMARKS
KANSAS CTY INT PTCLDY    76  70  82 E16       29.85R
KANSAS C DTWN  CLOUDY    77  74  90 NE13      29.83R
LEE`S SUMMIT   CLOUDY    74  70  87 NE9       29.85R
ST JOSEPH      CLOUDY    75  70  84 NE9       29.86R
CHILLICOTHE      N/A     74  68  81 NE8       29.89S
KIRKSVILLE     PTCLDY    68  66  93 E7        29.91F

$$
MOZ066>068-077>081-088>096-101>105-020600-
...SOUTHWEST MISSOURI...

CITY           SKY/WX    TMP DP  RH WIND       PRES   REMARKS
SPRINGFIELD    CLOUDY    80  70  71 SW17G25   29.81F
JOPLIN         CLOUDY    81  71  71 S20       29.82R

$$
MOZ032>034-039>042-045>050-055>058-069>072-020600-
...CENTRAL MISSOURI...

CITY           SKY/WX    TMP DP  RH WIND       PRES   REMARKS
COLUMBIA       CLOUDY    71  69  93 E5        29.84F
JEFFERSON CITY CLOUDY    72  70  93 CALM      29.84R
ROLLA          LGT RAIN  70  69  97 CALM      29.82F
SEDALIA        CLOUDY    73  70  90 SE9       29.87R
WHITEMAN AFB   MOCLDY    71  69  93 SE3       29.84S
WARRENSBURG    CLOUDY    72  68  88 E5        29.84F
OSAGE BEACH    CLOUDY    70  66  88 CALM      29.88R

$$
MOZ051-052-059>065-020600-
...EAST CENTRAL MISSOURI...

CITY           SKY/WX    TMP DP  RH WIND       PRES   REMARKS
ST LOUIS INTL  CLOUDY    74  70  87 S5        29.88R
SPIRIT OF STL  CLOUDY    71  69  93 SE3       29.85S
ST CHARLES     LGT RAIN  73  72  96 E8        29.86F

$$
MOZ072>076-082>087-097>100-106>115-020600-
...SOUTH CENTRAL AND SOUTHEAST MISSOURI...

CITY           SKY/WX    TMP DP  RH WIND       PRES   REMARKS
CAPE GIRARDEAU CLOUDY    75  71  87 SE8       29.88R
FARMINGTON     CLOUDY    73  72  94 SW6       29.93R THUNDER
WEST PLAINS    CLOUDY    77  72  84 S6        29.89S

$$


USA.gov is the U.S. government's official web portal to all federal, state and local government web resources and services.